Weather Roundup
Issued by NWS

Home | Current Version | Previous Version | Text Only | Print | Product List | Glossary On
Versions: 1 2 3 4 5 6 7 8 9 10 11 12 13 14 15 16 17 18 19 20 21 22 23 24 25 26 27 28 29 30 31 32 33 34 35 36 37 38 39 40 41 42 43 44 45 46 47 48 49 50
000
NZUS93 KARX 010610
HRRWXR

CURRENT HOURLY OBSERVATIONS ACROSS
MUCH OF THE UPPER MISSISSIPPI VALLEY
NATIONAL WEATHER SERVICE LA CROSSE WI
100 AM CDT WED OCT 01 2014


...SOUTHEAST MINNESOTA...


CITY           SKY/WX    TMP DP  RH WIND       PRES   REMARKS
ROCHESTER      MOCLDY    48  44  86 SE13      29.93R
ROCHESTER/MAYO FAIR      49  43  80 SE15      29.93R
WINONA         CLOUDY    48  45  87 SE6       29.97R
AUSTIN         LGT RAIN  52  46  82 SE12      29.89F
ALBERT LEA     CLOUDY    54  46  76 SE14G20   29.87F
DODGE CENTER   CLOUDY    50  45  81 SE15      29.90S
PRESTON        MOCLDY    47  43  86 SE7       29.94S
OWATONNA       MOCLDY    52  46  82 SE13G20   29.88R
FARIBAULT      MOCLDY    54  46  76 SE9G16    29.88S
$$

...ELSEWHERE IN MINNESOTA...


CITY           SKY/WX    TMP DP  RH WIND       PRES   REMARKS
MINNEAPOLIS    MOCLDY    52  45  77 SE15      29.88S
INTNL FALLS    MOCLDY    45  40  82 SE12G17   29.83F
DULUTH         CLOUDY    48  45  89 E14       29.89F
RED WING       CLOUDY    52  45  76 SE14      29.91S
REDWOOD FALLS  CLEAR     58  55  90 SE14      29.77F
MANKATO        CLOUDY    55  45  67 SE14      29.83F
WORTHINGTON    CLOUDY    59  57  94 S15G21    29.79S
FAIRMONT       MOCLDY    57  52  82 SE12      29.81F
$$

...SOUTHWEST WISCONSIN...


CITY           SKY/WX    TMP DP  RH WIND       PRES   REMARKS
LA CROSSE      CLOUDY    49  43  80 E6        29.96F
PRAIRIE DU CHI PTCLDY    48  42  81 SE5       29.98R
BOSCOBEL       MOCLDY    47  43  86 NE5       29.98F
LONE ROCK      CLOUDY    48  42  80 E7        30.00F
PLATTEVILLE    PTCLDY    46  44  91 E8        29.99R
FORT MC COY    CLOUDY    45  43  93 E7        29.98F
CAMP DOUGLAS   MOCLDY    41  41 100 SE6       29.99F
VIROQUA        FAIR      45  45  98 SE9G16    29.97S
WIS DELLS      CLOUDY    46  44  90 E8        30.01F
$$

...ELSEWHERE IN WISCONSIN...


CITY           SKY/WX    TMP DP  RH WIND       PRES   REMARKS
MILWAUKEE      CLOUDY    53  50  89 W5        30.02F
MADISON        CLOUDY    49  44  83 E8        30.01F
GREEN BAY      CLOUDY    48  47  96 W3        30.05S FOG
EAU CLAIRE     CLOUDY    47  41  80 S8        29.97R
BLACK RVR FLS  FAIR      46  43  90 E5        29.97F
MEDFORD        CLOUDY    43  42  95 SE9       30.00F FOG
WAUSAU         CLOUDY    45  42  89 SE12      30.02S
WIS RAPIDS     CLOUDY    47  43  86 SE10      30.04S
MARSHFIELD     CLOUDY    47  43  86 SE13      30.00F
RICE LAKE      CLOUDY    46  42  85 SE15G22   29.95R
$$

...NORTHEAST IOWA...


CITY           SKY/WX    TMP DP  RH WIND       PRES   REMARKS
DECORAH        CLOUDY    46  45  93 SE7       29.95S
MASON CITY     CLOUDY    54  50  86 S13       29.89R
CHARLES CITY   CLOUDY    52  46  82 SE13      29.91F
OELWEIN        MOCLDY    50  46  87 SE6       29.95R
$$

...ELSEWHERE IN IOWA...


CITY           SKY/WX    TMP DP  RH WIND       PRES   REMARKS
DES MOINES     CLOUDY    65  56  72 SE8       29.83F
IOWA CITY      MOCLDY    53  49  86 E8        29.93F
FORT DODGE     CLOUDY    57  54  88 SE15      29.82F
$$

...NORTHERN ILLINOIS...


CITY           SKY/WX    TMP DP  RH WIND       PRES   REMARKS
CHICAGO-OHARE  CLOUDY    55  46  71 E8        30.01S
CHICAGO-MIDWAY CLOUDY    57  48  72 E10       30.01S
MOLINE         NOT AVBL
ROCKFORD       CLOUDY    52  47  83 E7        30.02F
PEORIA         CLEAR     55  47  74 E13       29.97S
$$

NOTE: "FAIR" INDICATES FEW OR NO CLOUDS BELOW 12,000 FEET WITH NO
SIGNIFICANT WEATHER AND/OR OBSTRUCTIONS TO VISIBILITY. WIND
SPEEDS ARE IN MILES-PER-HOUR.



USA.gov is the U.S. government's official web portal to all federal, state and local government web resources and services.